Location: Lombard
(41.8800°N, 88.0080°W)
Time: 12:36:13
(UTC-06:00)

Transit 4A - Pass Details

Date: 01 December 2023
Orbit: 870 x 973 km, 66.8° (Epoch: 02 March)

Event Time Altitude Azimuth Distance (km) Brightness Sun altitude
Rises 21:51:17 0° 242° (WSW) 3,660 - -59.5°
Reaches altitude 10° 21:54:11 10° 253° (WSW) 2,715 - -60.0°
Maximum altitude 21:59:42 30° 313° (NW) 1,654 - -60.8°
Drops below altitude 10° 22:05:12 10° 14° (NNE) 2,696 - -61.7°
Sets 22:08:05 0° 25° (NNE) 3,631 - -62.1°
